sat.trackr.live / text

‹ back to catalog

STARLINK-35111

NORAD 65463 · 2025-195F

PAYLOAD ACTIVE UNKNOWN

§ Identity

Operator
Country
US
Launch date
2025-09-03
Launch site
AFETR
Launch vehicle
Mass (kg)
RCS (m²)

Purposes: comms

External: N2YO · Heavens-Above · Gunter

§ Orbital elements

Epoch: 2026-09-20T21:46:19.602912Z

Period
94.01 min
Inclination
53.1616°
Eccentricity
0.0002303
Mean motion
15.31723793 rev/d
Perigee alt
469.1 km
Apogee alt
472.2 km
Semi-major
6,848.8 km
B*
6.5192e-4
RAAN
69.9098°
Arg perigee
28.1793°
Mean anomaly
331.9333°
Rev number
5,990

§ Raw data

STARLINK-351111 65463U 25195F   26263.90717133  .00019934  00000+0  65192-3 0  99972 65463  53.1616  69.9098 0002303  28.1793 331.9333 15.31723793 59906

JSON: /api/v1/satellites/65463 · /tle

For live sub-satellite position, see the globe view (requires WebGL).

§ Visibility from observer

Set your observer location to see the next 7 days of passes ≥ 10°. The values pass through the URL so the page stays shareable.

No JS? Fill the form by hand. The geolocation button needs JavaScript.